Weather History for Pellston, MI

Change the Weather History Date:

Sunday, October 23, 2011

  Actual Average Record
Temperature  
Mean Temperature 42 °F -  
Max Temperature 57 °F 55 °F 81 °F (1963)
Min Temperature 28 °F 34 °F 4 °F (1969)
Degree Days  
Heating Degree Days 22    
Moisture  
Dew Point 34 °F    
Average Humidity 92    
Maximum Humidity 100    
Minimum Humidity 49    
Precipitation  
Precipitation 0.01 in - - ()
Sea Level Pressure  
Sea Level Pressure 29.96 in    
Wind  
Wind Speed 1 mph (SSW)    
Max Wind Speed 10 mph    
Max Gust Speed -    
Visibility 4 miles    
Events Fog , Rain    
Averages and records for this station are not official NWS values.
T = Trace of Precipitation, MM = Missing Value Source: NWS Daily Summary

Daily Weather History Graph

Daily Weather History Graph

Search for Another Location

Airport:

Trip Planner

Search our weather history database for the weather conditions in past years. The results will help you decide how hot, cold, wet, or windy it might be!

Date:

Astronomy

Oct. 23, 2011 Rise Set
Actual Time 8:05 AM EDT 6:40 PM EDT
Civil Twilight 7:35 AM EDT 7:10 PM EDT
Nautical Twilight 7:01 AM EDT 7:45 PM EDT
Astronomical Twilight 6:26 AM EDT 8:19 PM EDT
Moon 4:01 AM EDT (10/23) 4:38 PM EDT (10/23)
Length of Visible Light 11h 34m
Length of Day
10h 34m
Waning Crescent, 14% of the Moon is Illuminated
Oct 23
Waning Crescent
Oct 26
New
Nov 2
First Quarter
Nov 10
Full
Nov 18
Last Quarter

Hourly Weather History & Observations

Time (EDT) Temp. Windchill Dew Point Humidity Pressure Visibility Wind Dir Wind Speed Gust Speed Precip Events Conditions
12:27 AM 30.2 °F - 28.4 °F 93% 30.01 in 10.0 mi Calm Calm - N/A   Scattered Clouds
12:36 AM 30.2 °F - 28.4 °F 93% 30.00 in 10.0 mi Calm Calm - N/A   Mostly Cloudy
12:54 AM 30.0 °F - 28.9 °F 96% 30.02 in 9.0 mi Calm Calm - N/A   Overcast
1:14 AM 28.4 °F - 28.4 °F 100% 30.00 in 1.8 mi Calm Calm - N/A   Overcast
1:21 AM 28.4 °F - 28.4 °F 100% 30.00 in 0.8 mi Calm Calm - N/A   Mist
1:31 AM 28.4 °F - 28.4 °F 100% 30.00 in 0.2 mi Calm Calm - N/A Fog Light Freezing Fog
1:39 AM 28.4 °F - 28.4 °F 100% 30.00 in 0.8 mi Calm Calm - N/A   Mist
1:52 AM 28.4 °F - 28.4 °F 100% 30.00 in 1.2 mi Calm Calm - N/A   Overcast
1:54 AM 28.9 °F - 28.9 °F 100% 30.02 in 1.0 mi Calm Calm - N/A   Mist
2:00 AM 30.2 °F - 28.4 °F 93% 30.00 in 0.2 mi Calm Calm - N/A Fog Light Freezing Fog
2:25 AM 30.2 °F - 30.2 °F 100% 30.00 in 0.5 mi Calm Calm - N/A Fog Light Freezing Fog
2:43 AM 30.2 °F - 30.2 °F 100% 30.00 in 0.2 mi Calm Calm - N/A Fog Light Freezing Fog
2:54 AM 30.0 °F - 30.0 °F 100% 30.01 in 0.5 mi Calm Calm - N/A Fog Light Freezing Fog
3:22 AM 30.2 °F - 30.2 °F 100% 30.00 in 0.2 mi Calm Calm - N/A Fog Light Freezing Fog
3:35 AM 30.2 °F - 30.2 °F 100% 29.99 in 0.2 mi Calm Calm - N/A Fog Light Freezing Fog
3:54 AM 30.0 °F - 30.0 °F 100% 30.01 in 0.2 mi Calm Calm - N/A Fog Light Freezing Fog
4:12 AM 30.2 °F - 30.2 °F 100% 29.98 in 0.5 mi Calm Calm - N/A Fog Light Freezing Fog
4:23 AM 30.2 °F - 30.2 °F 100% 29.98 in 0.2 mi Calm Calm - N/A Fog Light Freezing Fog
4:37 AM 30.2 °F - 30.2 °F 100% 29.97 in 0.5 mi Calm Calm - N/A Fog Light Freezing Fog
4:54 AM 30.0 °F - 28.9 °F 96% 29.99 in 0.5 mi Calm Calm - N/A Fog Light Freezing Fog
5:05 AM 30.2 °F - 30.2 °F 100% 29.97 in 0.2 mi Calm Calm - N/A Fog Light Freezing Fog
5:54 AM 30.0 °F - 30.0 °F 100% 29.99 in 0.2 mi Calm Calm - N/A Fog Light Freezing Fog
6:03 AM 30.2 °F - 30.2 °F 100% 29.97 in 0.5 mi Calm Calm - N/A Fog Light Freezing Fog
6:11 AM 30.2 °F - 30.2 °F 100% 29.97 in 0.2 mi Calm Calm - N/A Fog Light Freezing Fog
6:47 AM 30.2 °F - 30.2 °F 100% 29.97 in 0.2 mi Calm Calm - N/A Fog Light Freezing Fog
6:54 AM 30.9 °F - 30.9 °F 100% 29.99 in 0.2 mi Calm Calm - N/A Fog Light Freezing Fog
7:30 AM 30.2 °F - 30.2 °F 100% 29.97 in 0.5 mi Calm Calm - N/A Fog Light Freezing Fog
7:46 AM 30.2 °F - 28.4 °F 93% 29.97 in 1.0 mi Calm Calm - N/A   Overcast
7:54 AM 30.0 °F - 30.0 °F 100% 29.99 in 0.5 mi Calm Calm - N/A Fog Light Freezing Fog
7:57 AM 30.2 °F - 30.2 °F 100% 29.97 in 0.2 mi Calm Calm - N/A Fog Light Freezing Fog
8:54 AM 32.0 °F - 32.0 °F 100% 30.00 in 0.2 mi Calm Calm - N/A Fog Fog
9:14 AM 32.0 °F - 32.0 °F 100% 29.97 in 0.2 mi Calm Calm - N/A Fog Fog
9:54 AM 34.0 °F - 34.0 °F 100% 29.99 in 0.2 mi Calm Calm - N/A Fog Fog
10:24 AM 35.6 °F - 35.6 °F 100% 29.96 in 0.2 mi Calm Calm - N/A Fog Fog
10:46 AM 37.4 °F - 37.4 °F 100% 29.95 in 0.5 mi Calm Calm - N/A Fog Fog
10:54 AM 39.0 °F - 39.0 °F 100% 29.97 in 0.8 mi Calm Calm - N/A   Overcast
10:59 AM 39.2 °F - 39.2 °F 100% 29.95 in 2.0 mi Calm Calm - N/A   Overcast
11:07 AM 39.2 °F 37.0 °F 39.2 °F 100% 29.95 in 7.0 mi SE 3.5 mph - N/A   Overcast
11:45 AM 46.4 °F - 42.8 °F 87% 29.93 in 10.0 mi Calm Calm - N/A   Scattered Clouds
11:54 AM 46.0 °F - 43.0 °F 89% 29.95 in 10.0 mi Calm Calm - N/A   Clear
12:54 PM 52.0 °F - 43.0 °F 71% 29.94 in 10.0 mi Calm Calm - N/A   Clear
1:54 PM 55.9 °F - 37.9 °F 51% 29.91 in 10.0 mi SW 10.4 mph - N/A   Clear
2:54 PM 57.0 °F - 37.9 °F 49% 29.89 in 10.0 mi SSW 10.4 mph - N/A   Clear
3:54 PM 57.0 °F - 37.9 °F 49% 29.88 in 10.0 mi SW 6.9 mph - N/A   Clear
4:54 PM 57.0 °F - 37.9 °F 49% 29.87 in 10.0 mi SW 6.9 mph - N/A   Clear
5:54 PM 54.0 °F - 37.9 °F 55% 29.87 in 10.0 mi West 4.6 mph - N/A   Mostly Cloudy
6:54 PM 52.0 °F - 39.0 °F 61% 29.87 in 10.0 mi WSW 4.6 mph - N/A   Overcast
7:54 PM 48.9 °F - 42.1 °F 77% 29.84 in 10.0 mi East 5.8 mph - 0.00 in   Overcast
8:54 PM 45.0 °F - 41.0 °F 86% 29.84 in 10.0 mi Calm Calm - N/A   Mostly Cloudy
9:54 PM 46.0 °F - 43.0 °F 89% 29.83 in 10.0 mi Calm Calm - 0.00 in   Overcast
10:54 PM 46.0 °F - 43.0 °F 89% 29.82 in 10.0 mi Calm Calm - 0.00 in Rain Light Rain
11:54 PM 46.0 °F 44.8 °F 44.1 °F 93% 29.77 in 10.0 mi ESE 3.5 mph - 0.01 in   Overcast